2021-006AE (47441 NORAD) Tracking and Keplerian Element Data

This shows tracking and keplerian element data for the satellite.

Feedback or suggestion? Click here.




ElementValue
Catalog47441
Name2021-006AE
Epoch Orbit473
Epoch Day53.90342156
Epoch Year2021
RAAN117.0983
Inclination97.5023
Eccentricity0.0013606
Argument of Perigee130.6285
Mean Anonmoly229.6132
Mean Motion15.12763348
Decay Rate1.681E-05
L11 47441U 21006AE 21053.90342156 .00001681 00000-0 99368-4 0 9995
L22 47441 97.5023 117.0983 0013606 130.6285 229.6132 15.12763348 4737



Live tracking and technical data element details for 2021-006AE (NORAD 47441). 2021-006AE can be tracked NOW for your location showing map with azimuth and elevation plus other details from your city location.







IsCatalogInMostPopularTable: catalog: 47441, numindb: 90
Update: records affected: 1



GetName: 47441 2021-006AE

Hit Count: updated at: Sun, 28 May 2023 06:49:33 GMT